N0ICQ Weather Reports


time (UTC)temp
C
wind
direction
speed
KPH
gust
KPH
rain 1hr
cm
rain 24hr
cm
rain mn
cm
humidity
%
barometer
mb
20260502130547 5 217 19.3 0.0 0.00 0.00 0.00 62 1017.1
20260502123550 3 210 16.1 0.0 0.00 0.00 0.00 69 1017.5
20260502123036 2 209 14.5 0.0 0.00 0.00 0.00 72 1017.7
20260502122512 2 217 14.5 0.0 0.00 0.00 0.00 72 1017.7
20260502122036 2 213 16.1 0.0 0.00 0.00 0.00 72 1017.7
20260502121517 1 213 17.7 0.0 0.00 0.00 0.00 72 1017.7
20260502121039 1 217 17.7 0.0 0.00 0.00 0.00 72 1017.7
20260502120508 1 213 17.7 0.0 0.00 0.00 0.00 73 1017.7
20260502115526 0 217 16.1 0.0 0.00 0.00 0.00 74 1017.7
20260502115008 0 221 12.9 0.0 0.00 0.00 0.00 74 1017.7
20260502114532 0 219 12.9 0.0 0.00 0.00 0.00 74 1017.8
20260502114013 0 221 16.1 0.0 0.00 0.00 0.00 73 1017.8
20260502113536 0 221 16.1 0.0 0.00 0.00 0.00 74 1017.8
20260502113020 0 223 16.1 0.0 0.00 0.00 0.00 74 1018.0
20260502112544 0 219 16.1 0.0 0.00 0.00 0.00 74 1018.0
20260502112010 0 219 16.1 0.0 0.00 0.00 0.00 75 1018.0
20260502111551 0 222 16.1 0.0 0.00 0.00 0.00 75 1017.9
20260502111016 0 221 16.1 0.0 0.00 0.00 0.00 74 1017.9
20260502110540 0 223 16.1 0.0 0.00 0.00 0.00 74 1017.9
20260502110035 0 221 16.1 0.0 0.00 0.00 0.00 74 1017.9
20260502105549 0 218 16.1 0.0 0.00 0.00 0.00 74 1017.9
20260502105033 0 220 16.1 0.0 0.00 0.00 0.00 74 1017.9
20260502104553 0 216 16.1 0.0 0.00 0.00 0.00 74 1018.0
20260502104034 0 219 16.1 0.0 0.00 0.00 0.00 75 1018.0
20260502103516 0 221 14.5 0.0 0.00 0.00 0.00 76 1018.0
20260502103040 0 213 14.5 0.0 0.00 0.00 0.00 76 1018.2
20260502102556 0 220 14.5 0.0 0.00 0.00 0.00 77 1018.2
20260502102042 -1 220 12.9 0.0 0.00 0.00 0.00 77 1018.2
20260502101511 -1 223 9.7 0.0 0.00 0.00 0.00 77 1018.2
20260502101046 -1 226 9.7 0.0 0.00 0.00 0.00 76 1018.2
20260502100508 -1 228 9.7 0.0 0.00 0.00 0.00 76 1018.2
20260502091015 0 227 11.3 0.0 0.00 0.00 0.00 74 1018.3
20260502090554 0 226 11.3 0.0 0.00 0.00 0.00 75 1018.3
20260502071014 1 223 9.7 0.0 0.00 0.00 0.00 69 1018.3
20260502070540 1 223 9.7 0.0 0.00 0.00 0.00 69 1018.3
20260502070039 0 223 9.7 0.0 0.00 0.00 0.00 70 1018.4
20260502065550 0 223 9.7 0.0 0.00 0.00 0.00 69 1018.4
20260502065033 0 223 9.7 0.0 0.00 0.00 0.00 69 1018.4
20260502064620 1 223 9.7 0.0 0.00 0.00 0.00 69 1018.5
20260502064024 1 229 9.7 0.0 0.00 0.00 0.00 68 1018.5
20260502063600 1 231 8.0 0.0 0.00 0.00 0.00 68 1018.5
20260502063502 1 231 8.0 0.0 0.00 0.00 0.00 68 1018.5
20260502063047 1 231 8.0 0.0 0.00 0.00 0.00 68 1018.6
20260502062518 1 231 9.7 0.0 0.00 0.00 0.00 68 1018.6
20260502062041 1 231 9.7 0.0 0.00 0.00 0.00 69 1018.6
20260502061522 1 231 9.7 0.0 0.00 0.00 0.00 70 1018.8
20260502061043 1 232 9.7 0.0 0.00 0.00 0.00 70 1018.8
20260502060510 1 236 9.7 0.0 0.00 0.00 0.00 70 1018.8
20260502060048 1 237 8.0 0.0 0.00 0.00 0.00 70 1018.8
20260502055514 1 237 8.0 0.0 0.00 0.00 0.00 71 1018.8
20260502055052 0 237 9.7 0.0 0.00 0.00 0.00 70 1018.8
20260502054530 1 237 9.7 0.0 0.00 0.00 0.00 70 1018.8
20260502054058 1 237 8.0 0.0 0.00 0.00 0.00 69 1018.8
20260502053530 1 237 8.0 0.0 0.00 0.00 0.00 70 1018.8
20260502053010 1 238 8.0 0.0 0.00 0.00 0.00 70 1018.7
20260502052550 1 238 8.0 0.0 0.00 0.00 0.00 70 1018.7
20260502052010 1 239 8.0 0.0 0.00 0.00 0.00 70 1018.7
20260502051533 1 239 6.4 0.0 0.00 0.00 0.00 69 1018.9
20260502051020 1 250 6.4 0.0 0.00 0.00 0.00 69 1018.9
20260502050553 1 256 6.4 0.0 0.00 0.00 0.00 69 1018.9
20260502050039 1 257 6.4 0.0 0.00 0.00 0.00 68 1019.0
20260502045550 1 257 6.4 0.0 0.00 0.00 0.00 68 1019.0
20260502045031 1 258 6.4 0.0 0.00 0.00 0.00 68 1019.0
20260502044558 1 258 6.4 0.0 0.00 0.00 0.00 67 1018.8
20260502044035 1 265 6.4 0.0 0.00 0.00 0.00 65 1018.8
20260502043518 2 273 4.8 0.0 0.00 0.00 0.00 64 1018.8
20260502043045 2 328 3.2 0.0 0.00 0.00 0.00 62 1018.6
20260502042601 3 329 3.2 0.0 0.00 0.00 0.00 60 1018.6
20260502042042 3 329 3.2 0.0 0.00 0.00 0.00 58 1018.6
20260502041510 4 330 3.2 0.0 0.00 0.00 0.00 57 1018.7
20260502041049 4 330 3.2 0.0 0.00 0.00 0.00 57 1018.7
20260502040513 4 331 3.2 0.0 0.00 0.00 0.00 57 1018.7
20260502040046 4 331 3.2 0.0 0.00 0.00 0.00 57 1018.8
20260502035534 4 331 3.2 0.0 0.00 0.00 0.00 57 1018.8
20260502035014 4 331 3.2 0.0 0.00 0.00 0.00 56 1018.8
20260502034536 5 331 3.2 0.0 0.00 0.00 0.00 56 1018.7
20260502034017 5 333 1.6 0.0 0.00 0.00 0.00 56 1018.7
20260502033555 5 336 1.6 0.0 0.00 0.00 0.00 55 1018.7
20260502033014 5 336 1.6 0.0 0.00 0.00 0.00 56 1018.7
20260502032540 5 336 1.6 0.0 0.00 0.00 0.00 56 1018.7
20260502032020 5 336 0.0 0.0 0.00 0.00 0.00 56 1018.7
20260502031552 5 336 0.0 0.0 0.00 0.00 0.00 56 1018.6
20260502031030 5 336 1.6 0.0 0.00 0.00 0.00 56 1018.6
20260502030551 5 336 1.6 0.0 0.00 0.00 0.00 54 1018.6
20260502030030 5 336 3.2 0.0 0.00 0.00 0.00 55 1018.6
20260502025510 5 336 3.2 0.0 0.00 0.00 0.00 55 1018.6
20260502025033 5 336 3.2 0.0 0.00 0.00 0.00 54 1018.6
20260502024510 5 336 3.2 0.0 0.00 0.00 0.00 54 1018.4
20260502024046 5 336 3.2 0.0 0.00 0.00 0.00 54 1018.4
20260502023526 5 336 3.2 0.0 0.00 0.00 0.00 54 1018.4
20260502023008 5 336 3.2 0.0 0.00 0.00 0.00 54 1018.4
20260502022531 5 336 3.2 0.0 0.00 0.00 0.00 54 1018.4
20260502022054 5 336 3.2 0.0 0.00 0.00 0.00 54 1018.4
20260502021530 6 335 3.2 0.0 0.00 0.00 0.00 54 1018.4
20260502021014 6 335 3.2 0.0 0.00 0.00 0.00 53 1018.4
20260502020541 6 335 3.2 0.0 0.00 0.00 0.00 53 1018.4
20260502020016 6 334 4.8 0.0 0.00 0.00 0.00 53 1018.2
20260502015543 6 334 4.8 0.0 0.00 0.00 0.00 53 1018.2
20260502015025 6 333 6.4 0.0 0.00 0.00 0.00 53 1018.2
20260502014546 6 336 6.4 0.0 0.00 0.00 0.00 53 1018.1
20260502014019 6 337 6.4 0.0 0.00 0.00 0.00 52 1018.1
20260502013552 6 334 6.4 0.0 0.00 0.00 0.00 51 1018.1
20260502013018 6 321 6.4 0.0 0.00 0.00 0.00 51 1018.0
20260502012540 7 333 8.0 0.0 0.00 0.00 0.00 50 1018.0
20260502012030 7 346 8.0 0.0 0.00 0.00 0.00 49 1018.0
20260502011546 7 318 9.7 0.0 0.00 0.00 0.00 49 1018.0
20260502011030 7 329 9.7 0.0 0.00 0.00 0.00 48 1018.0
20260502010546 7 321 11.3 0.0 0.00 0.00 0.00 48 1018.0
20260502010030 7 337 11.3 0.0 0.00 0.00 0.00 48 1018.0
20260502005548 7 324 11.3 0.0 0.00 0.00 0.00 47 1018.0
20260502005016 8 342 11.3 0.0 0.00 0.00 0.00 47 1018.0
20260502004559 8 348 11.3 0.0 0.00 0.00 0.00 48 1017.9
20260502004020 8 344 14.5 0.0 0.00 0.00 0.00 47 1017.9
20260502003543 8 355 17.7 0.0 0.00 0.00 0.00 46 1017.9
20260502003024 8 355 17.7 0.0 0.00 0.00 0.00 47 1017.8
20260502002600 8 360 16.1 0.0 0.00 0.00 0.00 47 1017.8
20260502002507 8 5 16.1 0.0 0.00 0.00 0.00 47 1017.8
20260502002044 8 360 14.5 0.0 0.00 0.00 0.00 47 1017.8
20260502001522 8 355 11.3 0.0 0.00 0.00 0.00 47 1017.9
20260502001057 8 346 9.7 0.0 0.00 0.00 0.00 46 1017.9
20260502001007 8 321 9.7 0.0 0.00 0.00 0.00 46 1017.9
20260502000540 8 298 12.9 0.0 0.00 0.00 0.00 44 1017.9
20260502000041 8 326 16.1 0.0 0.00 0.00 0.00 46 1018.0
20260501235509 9 355 12.9 0.0 0.00 0.00 0.00 46 1018.0
20260501235033 9 296 12.9 0.0 0.00 0.00 0.00 46 1018.0
20260501234512 9 323 12.9 0.0 0.00 0.00 0.00 46 1017.9
20260501234038 9 320 14.5 0.0 0.00 0.00 0.00 46 1017.9
20260501233518 9 344 16.1 0.0 0.00 0.00 0.00 46 1017.9
20260501233044 9 319 14.5 0.0 0.00 0.00 0.00 45 1018.0
20260501232512 9 337 14.5 0.0 0.00 0.00 0.00 45 1018.0
20260501232047 9 323 14.5 0.0 0.00 0.00 0.00 44 1018.0
20260501231515 9 317 14.5 0.0 0.00 0.00 0.00 45 1018.0
20260501231054 9 307 17.7 0.0 0.00 0.00 0.00 44 1018.0
20260501230522 9 328 14.5 0.0 0.00 0.00 0.00 46 1018.0
20260501230040 10 304 16.1 0.0 0.00 0.00 0.00 45 1017.9
20260501225528 10 336 19.3 0.0 0.00 0.00 0.00 44 1017.9
20260501225049 10 15 16.1 0.0 0.00 0.00 0.00 46 1017.9
20260501224557 10 331 14.5 0.0 0.00 0.00 0.00 47 1017.8
20260501224049 10 304 16.1 0.0 0.00 0.00 0.00 45 1017.8
20260501223516 10 355 19.3 0.0 0.00 0.00 0.00 44 1017.8
20260501223052 10 349 19.3 0.0 0.00 0.00 0.00 47 1017.9
20260501222518 10 335 16.1 0.0 0.00 0.00 0.00 45 1017.9
20260501222056 10 325 16.1 0.0 0.00 0.00 0.00 49 1017.9
20260501221520 10 325 16.1 0.0 0.00 0.00 0.00 48 1018.0
20260501221044 10 19 16.1 0.0 0.00 0.00 0.00 47 1018.0
20260501220529 10 5 16.1 0.0 0.00 0.00 0.00 46 1018.0
20260501220054 10 349 14.5 0.0 0.00 0.00 0.00 46 1018.0
20260501215536 10 321 19.3 0.0 0.00 0.00 0.00 47 1018.0
20260501215058 10 360 17.7 0.0 0.00 0.00 0.00 45 1018.0
20260501215002 10 350 16.1 0.0 0.00 0.00 0.00 48 1018.0
20260501214542 10 11 14.5 0.0 0.00 0.00 0.00 48 1017.9
20260501214011 9 277 19.3 0.0 0.00 0.00 0.00 46 1017.9
20260501213531 9 322 19.3 0.0 0.00 0.00 0.00 46 1017.9
20260501213011 9 321 16.1 0.0 0.00 0.00 0.00 46 1018.0
20260501212540 9 283 16.1 0.0 0.00 0.00 0.00 46 1018.0
20260501212033 10 321 19.3 0.0 0.00 0.00 0.00 47 1018.0
20260501211550 10 5 19.3 0.0 0.00 0.00 0.00 45 1018.0
20260501211032 10 355 19.3 0.0 0.00 0.00 0.00 46 1018.0
20260501210512 10 355 17.7 0.0 0.00 0.00 0.00 46 1018.0
20260501210050 9 360 14.5 0.0 0.00 0.00 0.00 49 1018.2
20260501205513 8 263 14.5 0.0 0.00 0.00 0.00 49 1018.2
20260501205038 8 323 16.1 0.0 0.00 0.00 0.00 48 1018.2
20260501204524 8 323 19.3 0.0 0.00 0.00 0.00 53 1018.0
20260501204043 8 348 22.5 0.0 0.00 0.00 0.00 48 1018.0
20260501203519 9 38 22.5 0.0 0.00 0.00 0.00 47 1018.0
20260501203054 9 360 20.9 0.0 0.00 0.00 0.00 50 1018.3
20260501202542 9 12 19.3 0.0 0.00 0.00 0.00 48 1018.3
20260501202010 8 19 17.7 0.0 0.00 0.00 0.00 48 1018.3
20260501201548 9 28 14.5 0.0 0.00 0.00 0.00 50 1018.3
20260501201029 8 344 16.1 0.0 0.00 0.00 0.00 49 1018.3
20260501200558 8 15 19.3 0.0 0.00 0.00 0.00 50 1018.3
20260501200048 8 360 17.7 0.0 0.00 0.00 0.00 51 1018.3
20260501195511 8 293 14.5 0.0 0.00 0.00 0.00 51 1018.3
20260501195046 8 310 16.1 0.0 0.00 0.00 0.00 49 1018.3
20260501194512 8 5 17.7 0.0 0.00 0.00 0.00 51 1018.3
20260501194031 8 290 17.7 0.0 0.00 0.00 0.00 49 1018.3
20260501193511 8 5 17.7 0.0 0.00 0.00 0.00 51 1018.3
20260501193036 8 355 19.3 0.0 0.00 0.00 0.00 48 1018.3
20260501192516 8 9 17.7 0.0 0.00 0.00 0.00 50 1018.3
20260501192040 8 13 16.1 0.0 0.00 0.00 0.00 50 1018.3
20260501191517 8 346 19.3 0.0 0.00 0.00 0.00 56 1018.1
20260501191100 7 13 19.3 0.0 0.00 0.00 0.00 51 1018.1
20260501191003 7 355 17.7 0.0 0.00 0.00 0.00 52 1018.1
20260501190528 8 5 17.7 0.0 0.00 0.00 0.00 52 1018.1
20260501190050 8 24 17.7 0.0 0.00 0.00 0.00 51 1018.2
20260501185535 8 355 16.1 0.0 0.00 0.00 0.00 53 1018.2
20260501185056 8 13 16.1 0.0 0.00 0.00 0.00 50 1018.2
20260501184522 8 292 17.7 0.0 0.00 0.00 0.00 56 1018.2
20260501184101 8 323 19.3 0.0 0.00 0.00 0.00 58 1018.2
20260501184002 7 5 19.3 0.0 0.00 0.00 0.00 56 1018.2
20260501183524 8 355 17.7 0.0 0.00 0.00 0.00 53 1018.2
20260501183104 8 19 17.7 0.0 0.00 0.00 0.00 52 1018.3
20260501183005 8 34 19.3 0.0 0.00 0.00 0.00 52 1018.3
20260501182527 7 355 20.9 0.0 0.00 0.00 0.00 55 1018.3
20260501182008 7 26 17.7 0.0 0.00 0.00 0.00 51 1018.3
20260501181528 8 360 17.7 0.0 0.00 0.00 0.00 54 1018.2
20260501181006 7 350 19.3 0.0 0.00 0.00 0.00 54 1018.2
20260501180530 7 346 17.7 0.0 0.00 0.00 0.00 55 1018.2
20260501180010 7 350 16.1 0.0 0.00 0.00 0.00 56 1018.3
20260501175534 7 28 17.7 0.0 0.00 0.00 0.00 56 1018.3
20260501175013 7 9 16.1 0.0 0.00 0.00 0.00 57 1018.3
20260501174556 7 340 17.7 0.0 0.00 0.00 0.00 54 1018.3
20260501174023 7 348 20.9 0.0 0.00 0.00 0.00 56 1018.3
20260501173546 7 5 19.3 0.0 0.00 0.00 0.00 57 1018.3
20260501173042 7 5 19.3 0.0 0.00 0.00 0.00 58 1018.5
20260501172508 6 355 19.3 0.0 0.00 0.00 0.00 57 1018.5
20260501172030 6 328 19.3 0.0 0.00 0.00 0.00 58 1018.5
20260501171550 6 5 20.9 0.0 0.00 0.00 0.00 58 1018.4
20260501171032 6 355 19.3 0.0 0.00 0.00 0.00 58 1018.4
20260501170550 6 355 19.3 0.0 0.00 0.00 0.00 58 1018.4
20260501170015 6 345 19.3 0.0 0.00 0.00 0.00 56 1018.4
20260501165554 6 5 19.3 0.0 0.00 0.00 0.00 60 1018.4
20260501165023 6 324 20.9 0.0 0.00 0.00 0.00 58 1018.4
20260501164631 6 346 20.9 0.0 0.00 0.00 0.00 61 1018.5
20260501164021 6 355 20.9 0.0 0.00 0.00 0.00 60 1018.5
20260501163553 6 360 20.9 0.0 0.00 0.00 0.00 62 1018.5
20260501163030 6 348 20.9 0.0 0.00 0.00 0.00 61 1018.3
20260501162518 6 340 20.9 0.0 0.00 0.00 0.00 61 1018.3
20260501162058 6 340 19.3 0.0 0.00 0.00 0.00 57 1018.3
20260501161532 6 360 19.3 0.0 0.00 0.00 0.00 64 1018.5
20260501161011 5 314 20.9 0.0 0.00 0.00 0.00 64 1018.5
20260501160534 5 344 20.9 0.0 0.00 0.00 0.00 62 1018.5
20260501160010 6 355 20.9 0.0 0.00 0.00 0.00 63 1018.4
20260501155533 5 344 20.9 0.0 0.00 0.00 0.00 64 1018.4
20260501155014 5 315 22.5 0.0 0.00 0.00 0.00 65 1018.4
20260501154552 5 329 22.5 0.0 0.00 0.00 0.00 63 1018.4
20260501154027 5 342 22.5 0.0 0.00 0.00 0.00 62 1018.4
20260501153555 5 348 20.9 0.0 0.00 0.00 0.00 63 1018.4
20260501153034 5 322 22.5 0.0 0.00 0.00 0.00 63 1018.5
20260501152557 5 333 22.5 0.0 0.00 0.00 0.00 63 1018.5
20260501152502 5 355 22.5 0.0 0.00 0.00 0.00 64 1018.5
20260501152026 5 336 20.9 0.0 0.00 0.00 0.00 64 1018.5
20260501151503 5 319 22.5 0.0 0.00 0.00 0.00 65 1018.4
20260501151043 4 343 22.5 0.0 0.00 0.00 0.00 64 1018.4
20260501150511 4 343 24.1 0.0 0.00 0.00 0.00 64 1018.4
20260501150046 4 346 24.1 0.0 0.00 0.00 0.00 64 1018.6
20260501145511 4 346 22.5 0.0 0.00 0.00 0.00 65 1018.6
20260501145051 4 323 22.5 0.0 0.00 0.00 0.00 65 1018.6
20260501144529 4 331 24.1 0.0 0.00 0.00 0.00 67 1018.6
20260501144057 4 355 20.9 0.0 0.00 0.00 0.00 65 1018.6
20260501143537 3 344 20.9 0.0 0.00 0.00 0.00 68 1018.6
20260501143058 3 333 24.1 0.0 0.00 0.00 0.00 65 1018.5
20260501142540 3 313 24.1 0.0 0.00 0.00 0.00 65 1018.5
20260501142101 3 325 24.1 0.0 0.00 0.00 0.00 67 1018.5